Time,TemperatureF,DewpointF,PressureIn,WindDirection,WindDirectionDegrees,WindSpeedMPH,WindSpeedGustMPH,Humidity,HourlyPrecipIn,Conditions,Clouds,dailyrainin,SolarRadiationWatts/m^2,SoftwareType,DateUTC
2013-02-07 00:02:00,47.5,37.4,30.07,SSW,213,1.0,1.0,68,0.00,,,0.00,0.0,meteohub,2013-02-07 07:02:00,
2013-02-07 00:07:00,47.1,37.4,30.07,SSW,213,0.0,1.0,69,0.00,,,0.00,0.0,meteohub,2013-02-07 07:07:00,
2013-02-07 00:12:00,46.9,37.6,30.08,SSW,213,0.0,1.0,70,0.00,,,0.00,0.0,meteohub,2013-02-07 07:12:00,
2013-02-07 00:17:00,46.8,37.6,30.08,SSW,213,2.0,2.0,70,0.00,,,0.00,0.0,meteohub,2013-02-07 07:17:00,
2013-02-07 00:22:00,46.6,37.4,30.08,SSW,207,0.0,2.0,70,0.00,,,0.00,0.0,meteohub,2013-02-07 07:22:00,
2013-02-07 00:28:00,46.2,37.4,30.08,SSW,207,1.0,2.0,71,0.00,,,0.00,0.0,meteohub,2013-02-07 07:28:00,
2013-02-07 00:33:00,46.0,37.2,30.08,SSW,205,1.0,2.0,71,0.00,,,0.00,0.0,meteohub,2013-02-07 07:33:00,
2013-02-07 00:38:00,46.0,37.2,30.08,SSW,199,1.0,2.0,71,0.00,,,0.00,0.0,meteohub,2013-02-07 07:38:00,
2013-02-07 00:43:00,46.4,37.6,30.08,SSW,193,2.0,2.0,71,0.00,,,0.00,0.0,meteohub,2013-02-07 07:43:00,
2013-02-07 00:48:00,46.6,37.8,30.08,South,188,1.0,2.0,71,0.00,,,0.00,0.0,meteohub,2013-02-07 07:48:00,
2013-02-07 00:53:00,46.6,37.4,30.08,South,187,1.0,2.0,70,0.00,,,0.00,0.0,meteohub,2013-02-07 07:53:00,
2013-02-07 00:58:00,46.6,37.4,30.08,South,187,1.0,2.0,70,0.00,,,0.00,0.0,meteohub,2013-02-07 07:58:00,
2013-02-07 01:03:00,46.4,37.2,30.08,South,187,1.0,2.0,70,0.00,,,0.00,0.0,meteohub,2013-02-07 08:03:00,
2013-02-07 01:08:00,46.4,37.2,30.08,South,187,1.0,2.0,70,0.00,,,0.00,0.0,meteohub,2013-02-07 08:08:00,
2013-02-07 01:13:00,46.4,37.2,30.08,South,186,0.0,2.0,70,0.00,,,0.00,0.0,meteohub,2013-02-07 08:13:00,
2013-02-07 01:18:00,46.4,37.2,30.08,South,186,1.0,2.0,70,0.00,,,0.00,0.0,meteohub,2013-02-07 08:18:00,
2013-02-07 01:23:00,46.2,37.4,30.08,South,186,0.0,2.0,71,0.00,,,0.00,0.0,meteohub,2013-02-07 08:23:00,
2013-02-07 01:28:00,45.9,37.4,30.09,South,186,0.0,2.0,72,0.00,,,0.00,0.0,meteohub,2013-02-07 08:28:00,
2013-02-07 01:33:00,45.3,37.2,30.09,South,186,0.0,1.0,73,0.00,,,0.00,0.0,meteohub,2013-02-07 08:33:00,
2013-02-07 01:38:00,45.0,36.9,30.09,South,186,0.0,1.0,73,0.00,,,0.00,0.0,meteohub,2013-02-07 08:38:00,
2013-02-07 01:43:00,44.4,37.0,30.09,South,186,0.0,1.0,75,0.00,,,0.00,0.0,meteohub,2013-02-07 08:43:00,
2013-02-07 01:48:00,44.1,36.7,30.09,South,186,0.0,1.0,75,0.00,,,0.00,0.0,meteohub,2013-02-07 08:48:00,
2013-02-07 01:53:00,43.7,37.0,30.09,South,186,1.0,1.0,77,0.00,,,0.00,0.0,meteohub,2013-02-07 08:53:00,
2013-02-07 01:58:00,43.3,36.9,30.09,South,186,1.0,1.0,78,0.00,,,0.00,0.0,meteohub,2013-02-07 08:58:00,
2013-02-07 02:03:00,43.2,36.7,30.09,South,186,0.0,1.0,78,0.00,,,0.00,0.0,meteohub,2013-02-07 09:03:00,
2013-02-07 02:08:00,43.0,36.9,30.09,South,186,0.0,1.0,79,0.00,,,0.00,0.0,meteohub,2013-02-07 09:08:00,
2013-02-07 02:13:00,42.6,36.9,30.09,South,186,0.0,1.0,80,0.00,,,0.00,0.0,meteohub,2013-02-07 09:13:00,
2013-02-07 02:18:00,42.6,37.2,30.09,South,186,0.0,1.0,81,0.00,,,0.00,0.0,meteohub,2013-02-07 09:18:00,
2013-02-07 02:23:00,42.6,36.9,30.09,South,186,0.0,1.0,80,0.00,,,0.00,0.0,meteohub,2013-02-07 09:23:00,
2013-02-07 02:28:00,42.4,37.0,30.09,South,186,0.0,1.0,81,0.00,,,0.00,0.0,meteohub,2013-02-07 09:28:00,
2013-02-07 02:33:00,42.4,37.0,30.09,South,186,1.0,1.0,81,0.00,,,0.00,0.0,meteohub,2013-02-07 09:33:00,
2013-02-07 02:38:00,43.0,37.6,30.09,South,186,2.0,2.0,81,0.00,,,0.00,0.0,meteohub,2013-02-07 09:38:00,
2013-02-07 02:43:00,43.7,37.6,30.09,South,186,1.0,2.0,79,0.00,,,0.00,0.0,meteohub,2013-02-07 09:43:00,
2013-02-07 02:48:00,43.9,37.4,30.09,South,186,0.0,2.0,78,0.00,,,0.00,0.0,meteohub,2013-02-07 09:48:00,
2013-02-07 02:53:00,44.1,37.6,30.09,South,186,0.0,2.0,78,0.00,,,0.00,0.0,meteohub,2013-02-07 09:53:00,
2013-02-07 02:58:00,44.2,37.6,30.09,South,186,2.0,2.0,77,0.00,,,0.00,0.0,meteohub,2013-02-07 09:58:00,
2013-02-07 03:03:00,45.1,37.9,30.09,South,186,1.0,2.0,76,0.00,,,0.00,0.0,meteohub,2013-02-07 10:03:00,
2013-02-07 03:08:00,45.7,38.3,30.09,WNW,286,1.0,2.0,75,0.00,,,0.00,0.0,meteohub,2013-02-07 10:08:00,
2013-02-07 03:13:00,45.7,37.9,30.09,WNW,286,0.0,2.0,74,0.00,,,0.00,0.0,meteohub,2013-02-07 10:13:00,
2013-02-07 03:18:00,45.3,37.6,30.09,WNW,286,0.0,2.0,74,0.00,,,0.00,0.0,meteohub,2013-02-07 10:18:00,
2013-02-07 03:23:00,44.8,37.0,30.09,WNW,286,0.0,2.0,74,0.00,,,0.00,0.0,meteohub,2013-02-07 10:23:00,
2013-02-07 03:28:00,44.1,37.0,30.09,WNW,286,0.0,2.0,76,0.00,,,0.00,0.0,meteohub,2013-02-07 10:28:00,
2013-02-07 03:33:00,43.7,37.2,30.09,WNW,286,0.0,2.0,78,0.00,,,0.00,0.0,meteohub,2013-02-07 10:33:00,
2013-02-07 03:38:00,43.2,37.0,30.09,WNW,286,1.0,1.0,79,0.00,,,0.00,0.0,meteohub,2013-02-07 10:38:00,
2013-02-07 03:43:00,43.0,37.2,30.09,WNW,286,0.0,2.0,80,0.00,,,0.00,0.0,meteohub,2013-02-07 10:43:00,
2013-02-07 03:48:00,42.6,36.9,30.09,WNW,286,1.0,2.0,80,0.00,,,0.00,0.0,meteohub,2013-02-07 10:48:00,
2013-02-07 03:53:00,42.3,36.5,30.09,WNW,286,1.0,2.0,80,0.00,,,0.00,0.0,meteohub,2013-02-07 10:53:00,
2013-02-07 03:58:00,41.7,36.3,30.09,WNW,286,0.0,1.0,81,0.00,,,0.00,0.0,meteohub,2013-02-07 10:58:00,
2013-02-07 04:03:00,41.4,36.3,30.09,WNW,286,1.0,1.0,82,0.00,,,0.00,0.0,meteohub,2013-02-07 11:03:00,
2013-02-07 04:08:00,41.4,36.3,30.09,WNW,286,0.0,1.0,82,0.00,,,0.00,0.0,meteohub,2013-02-07 11:08:00,
2013-02-07 04:13:00,41.0,36.0,30.09,WNW,286,0.0,1.0,82,0.00,,,0.00,0.0,meteohub,2013-02-07 11:13:00,
2013-02-07 04:18:00,40.6,36.0,30.09,WNW,286,1.0,1.0,83,0.00,,,0.00,0.0,meteohub,2013-02-07 11:18:00,
2013-02-07 04:23:00,40.5,36.0,30.09,WNW,286,0.0,1.0,84,0.00,,,0.00,0.0,meteohub,2013-02-07 11:23:00,
2013-02-07 04:28:00,40.5,36.0,30.09,WNW,286,0.0,1.0,84,0.00,,,0.00,0.0,meteohub,2013-02-07 11:28:00,
2013-02-07 04:33:00,40.5,36.0,30.09,WNW,286,0.0,1.0,84,0.00,,,0.00,0.0,meteohub,2013-02-07 11:33:00,
2013-02-07 04:38:00,40.5,36.0,30.09,WNW,286,0.0,1.0,84,0.00,,,0.00,0.0,meteohub,2013-02-07 11:38:00,
2013-02-07 04:43:00,40.5,36.0,30.09,WNW,286,0.0,1.0,84,0.00,,,0.00,0.0,meteohub,2013-02-07 11:43:00,
2013-02-07 04:48:00,40.5,36.0,30.09,WNW,286,0.0,1.0,84,0.00,,,0.00,0.0,meteohub,2013-02-07 11:48:00,
2013-02-07 04:53:00,40.1,35.6,30.09,WNW,286,0.0,1.0,84,0.00,,,0.00,0.0,meteohub,2013-02-07 11:53:00,
2013-02-07 04:58:00,39.7,35.6,30.09,WNW,286,0.0,1.0,85,0.00,,,0.00,0.0,meteohub,2013-02-07 11:58:00,
2013-02-07 05:03:00,39.6,35.8,30.09,WNW,286,0.0,1.0,86,0.00,,,0.00,0.0,meteohub,2013-02-07 12:03:00,
2013-02-07 05:08:00,39.4,35.8,30.09,WNW,286,1.0,1.0,87,0.00,,,0.00,0.0,meteohub,2013-02-07 12:08:00,
2013-02-07 05:13:00,39.0,35.2,30.09,WNW,286,0.0,1.0,86,0.00,,,0.00,0.0,meteohub,2013-02-07 12:13:00,
2013-02-07 05:18:00,38.8,35.2,30.10,WNW,286,0.0,1.0,87,0.00,,,0.00,0.0,meteohub,2013-02-07 12:18:00,
2013-02-07 05:23:00,38.8,35.2,30.10,WNW,286,0.0,1.0,87,0.00,,,0.00,0.0,meteohub,2013-02-07 12:23:00,
2013-02-07 05:28:00,38.8,35.6,30.10,WNW,286,1.0,1.0,88,0.00,,,0.00,0.0,meteohub,2013-02-07 12:28:00,
2013-02-07 05:33:00,38.8,35.6,30.10,WNW,286,0.0,1.0,88,0.00,,,0.00,0.0,meteohub,2013-02-07 12:33:00,
2013-02-07 05:38:00,38.7,35.4,30.10,WNW,286,1.0,1.0,88,0.00,,,0.00,0.0,meteohub,2013-02-07 12:38:00,
2013-02-07 05:43:00,38.7,35.4,30.10,WNW,286,1.0,1.0,88,0.00,,,0.00,0.0,meteohub,2013-02-07 12:43:00,
2013-02-07 05:49:00,38.5,35.2,30.10,WNW,286,1.0,1.0,88,0.00,,,0.00,0.0,meteohub,2013-02-07 12:49:00,
2013-02-07 05:54:00,38.5,35.6,30.10,WNW,286,0.0,1.0,89,0.00,,,0.00,0.0,meteohub,2013-02-07 12:54:00,
2013-02-07 05:59:00,38.7,35.8,30.10,WNW,286,0.0,1.0,89,0.00,,,0.00,0.0,meteohub,2013-02-07 12:59:00,
2013-02-07 06:04:00,38.7,35.4,30.10,WNW,286,0.0,2.0,88,0.00,,,0.00,0.0,meteohub,2013-02-07 13:04:00,
2013-02-07 06:09:00,38.5,35.6,30.10,WNW,286,0.0,2.0,89,0.00,,,0.00,0.0,meteohub,2013-02-07 13:09:00,
2013-02-07 06:14:00,38.5,35.6,30.10,WNW,286,0.0,1.0,89,0.00,,,0.00,0.0,meteohub,2013-02-07 13:14:00,
2013-02-07 06:19:00,38.5,35.6,30.10,WNW,286,1.0,1.0,89,0.00,,,0.00,0.0,meteohub,2013-02-07 13:19:00,
2013-02-07 06:24:00,38.5,35.6,30.10,WNW,286,0.0,1.0,89,0.00,,,0.00,0.0,meteohub,2013-02-07 13:24:00,
2013-02-07 06:29:00,38.5,35.6,30.11,WNW,286,0.0,1.0,89,0.00,,,0.00,0.0,meteohub,2013-02-07 13:29:00,
2013-02-07 06:34:00,38.5,35.6,30.11,WNW,286,1.0,1.0,89,0.00,,,0.00,0.0,meteohub,2013-02-07 13:34:00,
2013-02-07 06:39:00,38.5,35.6,30.11,WNW,286,0.0,1.0,89,0.00,,,0.00,0.0,meteohub,2013-02-07 13:39:00,
2013-02-07 06:44:00,38.5,35.6,30.11,WNW,286,0.0,2.0,89,0.00,,,0.00,0.0,meteohub,2013-02-07 13:44:00,
2013-02-07 06:49:00,38.5,35.2,30.12,WNW,286,0.0,2.0,88,0.00,,,0.00,0.0,meteohub,2013-02-07 13:49:00,
2013-02-07 06:54:00,38.5,35.2,30.12,WNW,286,0.0,2.0,88,0.00,,,0.00,0.0,meteohub,2013-02-07 13:54:00,
2013-02-07 06:59:00,38.1,34.9,30.12,WNW,286,0.0,1.0,88,0.00,,,0.00,0.0,meteohub,2013-02-07 13:59:00,
2013-02-07 07:04:00,38.1,34.9,30.12,WNW,286,0.0,1.0,88,0.00,,,0.00,0.0,meteohub,2013-02-07 14:04:00,
2013-02-07 07:09:00,37.9,35.1,30.12,WNW,286,0.0,1.0,89,0.00,,,0.00,5.0,meteohub,2013-02-07 14:09:00,
2013-02-07 07:14:00,37.9,35.1,30.12,WNW,286,1.0,1.0,89,0.00,,,0.00,7.0,meteohub,2013-02-07 14:14:00,
2013-02-07 07:19:00,37.6,34.3,30.12,WNW,286,0.0,2.0,88,0.00,,,0.00,11.0,meteohub,2013-02-07 14:19:00,
2013-02-07 07:24:00,37.2,34.3,30.12,WNW,286,1.0,2.0,89,0.00,,,0.00,12.0,meteohub,2013-02-07 14:24:00,
2013-02-07 07:29:00,37.2,34.5,30.12,WNW,286,0.0,2.0,90,0.00,,,0.00,16.0,meteohub,2013-02-07 14:29:00,
2013-02-07 07:34:00,37.0,34.3,30.12,WNW,286,0.0,2.0,90,0.00,,,0.00,19.0,meteohub,2013-02-07 14:34:00,
2013-02-07 07:39:00,37.2,34.9,30.12,WNW,286,0.0,2.0,91,0.00,,,0.00,23.0,meteohub,2013-02-07 14:39:00,
2013-02-07 07:44:00,37.2,35.1,30.13,WNW,286,0.0,2.0,92,0.00,,,0.00,25.0,meteohub,2013-02-07 14:44:00,
2013-02-07 07:49:00,37.8,36.0,30.12,WNW,286,0.0,1.0,93,0.00,,,0.00,26.0,meteohub,2013-02-07 14:49:00,
2013-02-07 07:54:00,38.1,36.0,30.13,WNW,286,1.0,1.0,92,0.00,,,0.00,86.0,meteohub,2013-02-07 14:54:00,
2013-02-07 07:59:00,38.8,37.0,30.13,WNW,286,0.0,1.0,93,0.00,,,0.00,107.0,meteohub,2013-02-07 14:59:00,
2013-02-07 08:04:00,40.1,37.9,30.13,WNW,286,0.0,1.0,92,0.00,,,0.00,127.0,meteohub,2013-02-07 15:04:00,
2013-02-07 08:09:00,41.5,38.5,30.13,WNW,286,0.0,1.0,89,0.00,,,0.00,144.0,meteohub,2013-02-07 15:09:00,
2013-02-07 08:14:00,43.2,39.6,30.13,WNW,286,0.0,1.0,87,0.00,,,0.00,167.0,meteohub,2013-02-07 15:14:00,
2013-02-07 08:19:00,44.8,39.9,30.14,WNW,286,0.0,1.0,83,0.00,,,0.00,188.0,meteohub,2013-02-07 15:19:00,
2013-02-07 08:24:00,46.2,40.5,30.14,WNW,286,0.0,1.0,80,0.00,,,0.00,211.0,meteohub,2013-02-07 15:24:00,
2013-02-07 08:29:00,47.7,40.1,30.14,WNW,286,1.0,1.0,75,0.00,,,0.00,230.0,meteohub,2013-02-07 15:29:00,
2013-02-07 08:34:00,48.6,40.6,30.14,WNW,286,0.0,2.0,74,0.00,,,0.00,250.0,meteohub,2013-02-07 15:34:00,
2013-02-07 08:39:00,49.8,39.7,30.14,WNW,286,2.0,2.0,68,0.00,,,0.00,267.0,meteohub,2013-02-07 15:39:00,
2013-02-07 08:44:00,50.5,39.2,30.14,WNW,286,0.0,2.0,65,0.00,,,0.00,278.0,meteohub,2013-02-07 15:44:00,
2013-02-07 08:49:00,51.4,39.2,30.14,WNW,286,1.0,2.0,63,0.00,,,0.00,292.0,meteohub,2013-02-07 15:49:00,
2013-02-07 08:54:00,52.0,39.0,30.14,WNW,286,1.0,3.0,61,0.00,,,0.00,304.0,meteohub,2013-02-07 15:54:00,
2013-02-07 08:59:00,52.5,39.4,30.14,WNW,286,0.0,3.0,61,0.00,,,0.00,320.0,meteohub,2013-02-07 15:59:00,
2013-02-07 09:04:00,53.2,39.2,30.14,WNW,286,2.0,3.0,59,0.00,,,0.00,336.0,meteohub,2013-02-07 16:04:00,
2013-02-07 09:09:00,54.0,38.7,30.14,WNW,286,1.0,2.0,56,0.00,,,0.00,355.0,meteohub,2013-02-07 16:09:00,
2013-02-07 09:14:00,54.7,38.8,30.15,WNW,286,1.0,2.0,55,0.00,,,0.00,371.0,meteohub,2013-02-07 16:14:00,
2013-02-07 09:19:00,55.2,38.3,30.14,WSW,242,1.0,2.0,53,0.00,,,0.00,385.0,meteohub,2013-02-07 16:19:00,
2013-02-07 09:24:00,55.8,39.4,30.14,WSW,242,1.0,3.0,54,0.00,,,0.00,404.0,meteohub,2013-02-07 16:24:00,
2013-02-07 09:29:00,55.9,38.5,30.14,WSW,242,2.0,3.0,52,0.00,,,0.00,415.0,meteohub,2013-02-07 16:29:00,
2013-02-07 09:34:00,56.5,38.7,30.14,WSW,242,0.0,3.0,51,0.00,,,0.00,432.0,meteohub,2013-02-07 16:34:00,
2013-02-07 09:39:00,56.8,38.8,30.14,WSW,242,1.0,3.0,51,0.00,,,0.00,450.0,meteohub,2013-02-07 16:39:00,
2013-02-07 09:44:00,57.4,38.8,30.14,WSW,252,1.0,3.0,50,0.00,,,0.00,459.0,meteohub,2013-02-07 16:44:00,
2013-02-07 09:49:00,57.7,38.7,30.14,West,265,1.0,3.0,49,0.00,,,0.00,480.0,meteohub,2013-02-07 16:49:00,
2013-02-07 09:54:00,57.9,39.4,30.14,West,264,2.0,3.0,50,0.00,,,0.00,492.0,meteohub,2013-02-07 16:54:00,
2013-02-07 09:59:00,58.5,39.4,30.14,WSW,253,1.0,4.0,49,0.00,,,0.00,506.0,meteohub,2013-02-07 16:59:00,
2013-02-07 10:04:00,58.6,39.0,30.14,West,265,2.0,4.0,48,0.00,,,0.00,515.0,meteohub,2013-02-07 17:04:00,
2013-02-07 10:09:00,59.0,38.8,30.14,WSW,248,1.0,4.0,47,0.00,,,0.00,533.0,meteohub,2013-02-07 17:09:00,
2013-02-07 10:14:00,59.2,38.5,30.14,WSW,243,1.0,4.0,46,0.00,,,0.00,545.0,meteohub,2013-02-07 17:14:00,
2013-02-07 10:20:00,59.5,38.7,30.14,West,268,4.0,4.0,46,0.00,,,0.00,559.0,meteohub,2013-02-07 17:20:00,
2013-02-07 10:25:00,59.7,38.8,30.14,West,263,4.0,5.0,46,0.00,,,0.00,570.0,meteohub,2013-02-07 17:25:00,
2013-02-07 10:30:00,60.3,38.8,30.14,WSW,240,1.0,6.0,45,0.00,,,0.00,582.0,meteohub,2013-02-07 17:30:00,
2013-02-07 10:35:00,60.6,39.2,30.13,SW,217,2.0,6.0,45,0.00,,,0.00,596.0,meteohub,2013-02-07 17:35:00,
2013-02-07 10:40:00,61.2,39.7,30.13,SSW,194,3.0,6.0,45,0.00,,,0.00,608.0,meteohub,2013-02-07 17:40:00,
2013-02-07 10:45:00,61.9,39.2,30.13,WSW,257,2.0,6.0,43,0.00,,,0.00,619.0,meteohub,2013-02-07 17:45:00,
2013-02-07 10:50:00,62.2,39.4,30.13,West,261,4.0,6.0,43,0.00,,,0.00,628.0,meteohub,2013-02-07 17:50:00,
2013-02-07 10:55:00,62.6,39.2,30.12,West,268,4.0,5.0,42,0.00,,,0.00,640.0,meteohub,2013-02-07 17:55:00,
2013-02-07 11:00:00,62.4,39.0,30.12,West,261,5.0,6.0,42,0.00,,,0.00,649.0,meteohub,2013-02-07 18:00:00,
2013-02-07 11:05:00,63.0,38.3,30.12,West,267,3.0,8.0,40,0.00,,,0.00,654.0,meteohub,2013-02-07 18:05:00,
2013-02-07 11:10:00,63.1,37.8,30.12,WSW,244,1.0,8.0,39,0.00,,,0.00,664.0,meteohub,2013-02-07 18:10:00,
2013-02-07 11:15:00,63.7,37.6,30.12,West,278,6.0,8.0,38,0.00,,,0.00,675.0,meteohub,2013-02-07 18:15:00,
2013-02-07 11:20:00,63.7,38.3,30.12,WNW,286,2.0,8.0,39,0.00,,,0.00,680.0,meteohub,2013-02-07 18:20:00,
2013-02-07 11:25:00,63.9,37.0,30.12,SW,223,1.0,6.0,37,0.00,,,0.00,693.0,meteohub,2013-02-07 18:25:00,
2013-02-07 11:30:00,63.9,37.8,30.12,SSW,202,5.0,5.0,38,0.00,,,0.00,700.0,meteohub,2013-02-07 18:30:00,
2013-02-07 11:35:00,64.2,38.7,30.12,WSW,244,2.0,6.0,39,0.00,,,0.00,705.0,meteohub,2013-02-07 18:35:00,
2013-02-07 11:40:00,64.6,38.5,30.11,SSW,211,4.0,6.0,38,0.00,,,0.00,710.0,meteohub,2013-02-07 18:40:00,
2013-02-07 11:45:00,64.8,37.9,30.11,SW,223,2.0,6.0,37,0.00,,,0.00,715.0,meteohub,2013-02-07 18:45:00,
2013-02-07 11:50:00,64.8,37.9,30.11,SSW,198,1.0,5.0,37,0.00,,,0.00,724.0,meteohub,2013-02-07 18:50:00,
2013-02-07 11:55:00,65.3,37.6,30.11,South,182,2.0,5.0,36,0.00,,,0.00,726.0,meteohub,2013-02-07 18:55:00,
2013-02-07 12:00:00,65.5,37.8,30.11,West,280,3.0,4.0,36,0.00,,,0.00,728.0,meteohub,2013-02-07 19:00:00,
2013-02-07 12:05:00,65.8,37.4,30.11,SSW,195,2.0,4.0,35,0.00,,,0.00,735.0,meteohub,2013-02-07 19:05:00,
2013-02-07 12:10:00,66.0,37.6,30.10,West,263,4.0,5.0,35,0.00,,,0.00,737.0,meteohub,2013-02-07 19:10:00,
2013-02-07 12:15:00,65.8,38.1,30.10,West,270,6.0,6.0,36,0.00,,,0.00,740.0,meteohub,2013-02-07 19:15:00,
2013-02-07 12:20:00,65.7,37.9,30.09,West,265,4.0,7.0,36,0.00,,,0.00,737.0,meteohub,2013-02-07 19:20:00,
2013-02-07 12:25:00,66.0,37.6,30.09,WSW,257,5.0,7.0,35,0.00,,,0.00,733.0,meteohub,2013-02-07 19:25:00,
2013-02-07 12:30:00,66.4,37.2,30.09,South,184,3.0,8.0,34,0.00,,,0.00,740.0,meteohub,2013-02-07 19:30:00,
2013-02-07 12:35:00,66.6,37.4,30.09,SSW,211,3.0,8.0,34,0.00,,,0.00,742.0,meteohub,2013-02-07 19:35:00,
2013-02-07 12:40:00,66.7,36.7,30.08,SSW,203,1.0,8.0,33,0.00,,,0.00,737.0,meteohub,2013-02-07 19:40:00,
2013-02-07 12:45:00,67.1,37.0,30.08,WSW,257,5.0,6.0,33,0.00,,,0.00,744.0,meteohub,2013-02-07 19:45:00,
2013-02-07 12:50:00,66.9,36.1,30.08,West,271,5.0,10.0,32,0.00,,,0.00,742.0,meteohub,2013-02-07 19:50:00,
2013-02-07 12:55:00,67.1,37.8,30.08,SW,220,3.0,10.0,34,0.00,,,0.00,740.0,meteohub,2013-02-07 19:55:00,
2013-02-07 13:00:00,67.6,37.6,30.07,South,188,6.0,10.0,33,0.00,,,0.00,738.0,meteohub,2013-02-07 20:00:00,
2013-02-07 13:05:00,67.6,37.6,30.07,SSW,200,5.0,8.0,33,0.00,,,0.00,737.0,meteohub,2013-02-07 20:05:00,
2013-02-07 13:10:00,67.8,37.6,30.06,SE,132,1.0,8.0,33,0.00,,,0.00,731.0,meteohub,2013-02-07 20:10:00,
2013-02-07 13:15:00,68.2,37.2,30.06,West,263,5.0,8.0,32,0.00,,,0.00,731.0,meteohub,2013-02-07 20:15:00,
2013-02-07 13:20:00,67.8,37.6,30.06,WNW,288,3.0,7.0,33,0.00,,,0.00,726.0,meteohub,2013-02-07 20:20:00,
2013-02-07 13:25:00,67.6,36.7,30.06,North,0,1.0,7.0,32,0.00,,,0.00,724.0,meteohub,2013-02-07 20:25:00,
2013-02-07 13:30:00,67.6,38.3,30.06,WSW,248,2.0,6.0,34,0.00,,,0.00,722.0,meteohub,2013-02-07 20:30:00,
2013-02-07 13:35:00,67.8,36.9,30.05,West,259,3.0,7.0,32,0.00,,,0.00,715.0,meteohub,2013-02-07 20:35:00,
2013-02-07 13:40:00,68.0,36.3,30.05,NW,315,2.0,10.0,31,0.00,,,0.00,710.0,meteohub,2013-02-07 20:40:00,
2013-02-07 13:45:00,67.8,36.1,30.04,West,269,3.0,10.0,31,0.00,,,0.00,705.0,meteohub,2013-02-07 20:45:00,
2013-02-07 13:50:00,68.2,36.3,30.04,SW,225,6.0,6.0,31,0.00,,,0.00,700.0,meteohub,2013-02-07 20:50:00,
2013-02-07 13:55:00,68.5,36.7,30.04,SW,232,0.0,8.0,31,0.00,,,0.00,693.0,meteohub,2013-02-07 20:55:00,
2013-02-07 14:00:00,69.1,35.4,30.04,WSW,243,4.0,8.0,29,0.00,,,0.00,686.0,meteohub,2013-02-07 21:00:00,
2013-02-07 14:05:00,68.5,35.1,30.04,WSW,257,2.0,10.0,29,0.00,,,0.00,679.0,meteohub,2013-02-07 21:05:00,
2013-02-07 14:10:00,68.5,35.1,30.04,South,173,2.0,10.0,29,0.00,,,0.00,670.0,meteohub,2013-02-07 21:10:00,
2013-02-07 14:15:00,68.7,36.0,30.04,South,169,1.0,10.0,30,0.00,,,0.00,661.0,meteohub,2013-02-07 21:15:00,
2013-02-07 14:20:00,69.4,35.8,30.04,South,190,3.0,8.0,29,0.00,,,0.00,654.0,meteohub,2013-02-07 21:20:00,
2013-02-07 14:25:00,69.4,34.9,30.03,NW,320,2.0,8.0,28,0.00,,,0.00,645.0,meteohub,2013-02-07 21:25:00,
2013-02-07 14:30:00,69.4,34.9,30.03,SW,219,4.0,8.0,28,0.00,,,0.00,635.0,meteohub,2013-02-07 21:30:00,
2013-02-07 14:35:00,69.6,35.1,30.03,SSW,205,7.0,7.0,28,0.00,,,0.00,626.0,meteohub,2013-02-07 21:35:00,
2013-02-07 14:40:00,69.4,34.9,30.03,SW,232,1.0,9.0,28,0.00,,,0.00,617.0,meteohub,2013-02-07 21:40:00,
2013-02-07 14:45:00,69.8,34.3,30.03,WSW,248,3.0,9.0,27,0.00,,,0.00,606.0,meteohub,2013-02-07 21:45:00,
2013-02-07 14:50:00,70.2,34.7,30.03,SSW,192,4.0,9.0,27,0.00,,,0.00,596.0,meteohub,2013-02-07 21:50:00,
2013-02-07 14:55:00,70.2,33.6,30.02,SSW,211,2.0,7.0,26,0.00,,,0.00,582.0,meteohub,2013-02-07 21:55:00,
2013-02-07 15:00:00,70.3,34.7,30.02,SSW,196,2.0,7.0,27,0.00,,,0.00,571.0,meteohub,2013-02-07 22:00:00,
2013-02-07 15:06:00,70.2,33.6,30.02,West,269,2.0,7.0,26,0.00,,,0.00,557.0,meteohub,2013-02-07 22:06:00,
2013-02-07 15:11:00,70.0,34.5,30.02,SSW,193,4.0,8.0,27,0.00,,,0.00,547.0,meteohub,2013-02-07 22:11:00,
2013-02-07 15:16:00,70.2,34.7,30.02,South,171,2.0,8.0,27,0.00,,,0.00,533.0,meteohub,2013-02-07 22:16:00,
2013-02-07 15:21:00,70.2,34.7,30.02,SW,228,1.0,8.0,27,0.00,,,0.00,522.0,meteohub,2013-02-07 22:21:00,
2013-02-07 15:26:00,70.0,33.4,30.02,SW,222,3.0,7.0,26,0.00,,,0.00,510.0,meteohub,2013-02-07 22:26:00,
2013-02-07 15:31:00,69.6,33.3,30.01,SE,146,0.0,7.0,26,0.00,,,0.00,494.0,meteohub,2013-02-07 22:31:00,
2013-02-07 15:36:00,70.2,33.6,30.01,SSW,203,0.0,7.0,26,0.00,,,0.00,480.0,meteohub,2013-02-07 22:36:00,
2013-02-07 15:41:00,70.7,33.1,30.01,SSW,203,2.0,7.0,25,0.00,,,0.00,466.0,meteohub,2013-02-07 22:41:00,
2013-02-07 15:46:00,70.9,33.3,30.01,SSW,194,2.0,6.0,25,0.00,,,0.00,450.0,meteohub,2013-02-07 22:46:00,
2013-02-07 15:51:00,70.9,32.4,30.01,WSW,254,2.0,6.0,24,0.00,,,0.00,432.0,meteohub,2013-02-07 22:51:00,
2013-02-07 15:56:00,70.9,32.4,30.01,SSE,151,2.0,6.0,24,0.00,,,0.00,417.0,meteohub,2013-02-07 22:56:00,
2013-02-07 16:01:00,70.9,32.4,30.01,West,266,4.0,6.0,24,0.00,,,0.00,401.0,meteohub,2013-02-07 23:01:00,
2013-02-07 16:06:00,70.9,32.4,30.01,SW,214,3.0,6.0,24,0.00,,,0.00,387.0,meteohub,2013-02-07 23:06:00,
2013-02-07 16:11:00,70.5,32.0,30.01,SW,225,3.0,6.0,24,0.00,,,0.00,373.0,meteohub,2013-02-07 23:11:00,
2013-02-07 16:16:00,70.5,32.0,30.01,WNW,286,1.0,6.0,24,0.00,,,0.00,357.0,meteohub,2013-02-07 23:16:00,
2013-02-07 16:21:00,70.2,31.6,30.01,NW,317,2.0,6.0,24,0.00,,,0.00,338.0,meteohub,2013-02-07 23:21:00,
2013-02-07 16:26:00,70.0,31.5,30.01,WSW,256,2.0,6.0,24,0.00,,,0.00,320.0,meteohub,2013-02-07 23:26:00,
2013-02-07 16:31:00,70.3,30.7,30.01,South,191,2.0,6.0,23,0.00,,,0.00,304.0,meteohub,2013-02-07 23:31:00,
2013-02-07 16:36:00,70.3,30.7,30.01,SW,223,1.0,4.0,23,0.00,,,0.00,281.0,meteohub,2013-02-07 23:36:00,
2013-02-07 16:41:00,70.3,29.7,30.01,SW,235,3.0,5.0,22,0.00,,,0.00,258.0,meteohub,2013-02-07 23:41:00,
2013-02-07 16:46:00,70.3,29.7,30.01,SW,236,2.0,5.0,22,0.00,,,0.00,237.0,meteohub,2013-02-07 23:46:00,
2013-02-07 16:51:00,70.2,29.5,30.01,West,259,2.0,6.0,22,0.00,,,0.00,220.0,meteohub,2013-02-07 23:51:00,
2013-02-07 16:56:00,69.6,29.1,30.01,SW,223,2.0,6.0,22,0.00,,,0.00,197.0,meteohub,2013-02-07 23:56:00,
2013-02-07 17:01:00,69.4,28.9,30.01,WSW,243,2.0,6.0,22,0.00,,,0.00,172.0,meteohub,2013-02-08 00:01:00,
2013-02-07 17:06:00,69.3,29.8,30.01,West,266,3.0,5.0,23,0.00,,,0.00,149.0,meteohub,2013-02-08 00:06:00,
2013-02-07 17:11:00,69.1,29.7,30.01,West,280,3.0,6.0,23,0.00,,,0.00,127.0,meteohub,2013-02-08 00:11:00,
2013-02-07 17:16:00,68.7,29.5,30.01,West,261,1.0,6.0,23,0.00,,,0.00,105.0,meteohub,2013-02-08 00:16:00,
2013-02-07 17:21:00,68.4,29.1,30.01,WSW,257,3.0,6.0,23,0.00,,,0.00,84.0,meteohub,2013-02-08 00:21:00,
2013-02-07 17:26:00,67.8,30.7,30.01,West,267,0.0,6.0,25,0.00,,,0.00,56.0,meteohub,2013-02-08 00:26:00,
2013-02-07 17:31:00,67.3,30.2,30.01,WSW,254,2.0,5.0,25,0.00,,,0.00,33.0,meteohub,2013-02-08 00:31:00,
2013-02-07 17:36:00,66.7,30.7,30.01,West,266,2.0,5.0,26,0.00,,,0.00,25.0,meteohub,2013-02-08 00:36:00,
2013-02-07 17:41:00,66.6,31.5,30.01,West,263,2.0,4.0,27,0.00,,,0.00,23.0,meteohub,2013-02-08 00:41:00,
2013-02-07 17:46:00,66.0,32.0,30.01,WNW,300,3.0,4.0,28,0.00,,,0.00,16.0,meteohub,2013-02-08 00:46:00,
2013-02-07 17:51:00,65.7,32.5,30.01,WNW,298,1.0,4.0,29,0.00,,,0.00,14.0,meteohub,2013-02-08 00:51:00,
2013-02-07 17:56:00,65.1,32.9,30.01,West,267,2.0,4.0,30,0.00,,,0.00,9.0,meteohub,2013-02-08 00:56:00,
2013-02-07 18:01:00,64.6,33.3,30.01,West,265,0.0,4.0,31,0.00,,,0.00,5.0,meteohub,2013-02-08 01:01:00,
2013-02-07 18:06:00,64.0,32.7,30.01,West,265,0.0,3.0,31,0.00,,,0.00,0.0,meteohub,2013-02-08 01:06:00,
2013-02-07 18:11:00,63.7,33.3,30.01,West,265,0.0,3.0,32,0.00,,,0.00,0.0,meteohub,2013-02-08 01:11:00,
2013-02-07 18:16:00,63.0,33.4,30.01,West,265,0.0,2.0,33,0.00,,,0.00,0.0,meteohub,2013-02-08 01:16:00,
2013-02-07 18:21:00,62.4,33.6,30.01,West,265,1.0,2.0,34,0.00,,,0.00,0.0,meteohub,2013-02-08 01:21:00,
2013-02-07 18:26:00,62.2,34.9,30.01,West,265,0.0,2.0,36,0.00,,,0.00,0.0,meteohub,2013-02-08 01:26:00,
2013-02-07 18:32:00,61.5,34.3,30.01,West,265,0.0,2.0,36,0.00,,,0.00,0.0,meteohub,2013-02-08 01:32:00,
2013-02-07 18:37:00,61.0,34.5,30.01,West,265,0.0,1.0,37,0.00,,,0.00,0.0,meteohub,2013-02-08 01:37:00,
2013-02-07 18:42:00,60.4,35.4,30.01,West,265,0.0,1.0,39,0.00,,,0.00,0.0,meteohub,2013-02-08 01:42:00,
2013-02-07 18:47:00,59.7,35.4,30.01,West,265,1.0,1.0,40,0.00,,,0.00,0.0,meteohub,2013-02-08 01:47:00,
2013-02-07 18:52:00,58.8,35.2,30.01,West,265,0.0,1.0,41,0.00,,,0.00,0.0,meteohub,2013-02-08 01:52:00,
2013-02-07 18:57:00,58.3,36.0,30.01,West,265,0.0,1.0,43,0.00,,,0.00,0.0,meteohub,2013-02-08 01:57:00,
2013-02-07 19:02:00,57.7,35.4,30.01,West,265,1.0,1.0,43,0.00,,,0.00,0.0,meteohub,2013-02-08 02:02:00,
2013-02-07 19:07:00,57.0,35.2,30.01,West,265,0.0,1.0,44,0.00,,,0.00,0.0,meteohub,2013-02-08 02:07:00,
2013-02-07 19:12:00,56.5,35.4,30.01,West,265,0.0,1.0,45,0.00,,,0.00,0.0,meteohub,2013-02-08 02:12:00,
2013-02-07 19:17:00,55.9,37.0,30.01,West,265,0.0,2.0,49,0.00,,,0.00,0.0,meteohub,2013-02-08 02:17:00,
2013-02-07 19:22:00,55.4,35.4,30.01,West,265,0.0,2.0,47,0.00,,,0.00,0.0,meteohub,2013-02-08 02:22:00,
2013-02-07 19:27:00,54.9,36.1,30.01,West,265,0.0,2.0,49,0.00,,,0.00,0.0,meteohub,2013-02-08 02:27:00,
2013-02-07 19:32:00,54.3,35.1,30.01,West,265,1.0,1.0,48,0.00,,,0.00,0.0,meteohub,2013-02-08 02:32:00,
2013-02-07 19:37:00,54.0,35.8,30.01,West,265,0.0,1.0,50,0.00,,,0.00,0.0,meteohub,2013-02-08 02:37:00,
2013-02-07 19:42:00,53.4,34.7,30.01,West,265,0.0,1.0,49,0.00,,,0.00,0.0,meteohub,2013-02-08 02:42:00,
2013-02-07 19:47:00,53.1,34.3,30.01,West,265,0.0,1.0,49,0.00,,,0.00,0.0,meteohub,2013-02-08 02:47:00,
2013-02-07 19:52:00,52.9,35.2,30.01,West,265,1.0,1.0,51,0.00,,,0.00,0.0,meteohub,2013-02-08 02:52:00,
2013-02-07 19:57:00,52.5,36.0,30.01,West,265,0.0,1.0,53,0.00,,,0.00,0.0,meteohub,2013-02-08 02:57:00,
2013-02-07 20:02:00,52.2,34.5,30.02,West,265,1.0,1.0,51,0.00,,,0.00,0.0,meteohub,2013-02-08 03:02:00,
2013-02-07 20:07:00,52.0,34.3,30.02,West,265,0.0,1.0,51,0.00,,,0.00,0.0,meteohub,2013-02-08 03:07:00,
2013-02-07 20:12:00,51.6,35.6,30.02,West,265,0.0,1.0,54,0.00,,,0.00,0.0,meteohub,2013-02-08 03:12:00,
2013-02-07 20:17:00,51.3,35.6,30.01,West,265,0.0,1.0,55,0.00,,,0.00,0.0,meteohub,2013-02-08 03:17:00,
2013-02-07 20:22:00,50.9,35.2,30.01,West,265,0.0,1.0,55,0.00,,,0.00,0.0,meteohub,2013-02-08 03:22:00,
2013-02-07 20:27:00,50.5,35.4,30.01,West,265,0.0,1.0,56,0.00,,,0.00,0.0,meteohub,2013-02-08 03:27:00,
2013-02-07 20:32:00,50.4,35.2,30.01,West,265,0.0,1.0,56,0.00,,,0.00,0.0,meteohub,2013-02-08 03:32:00,
2013-02-07 20:37:00,50.0,35.8,30.01,West,265,0.0,1.0,58,0.00,,,0.00,0.0,meteohub,2013-02-08 03:37:00,
2013-02-07 20:42:00,49.6,35.4,30.01,West,265,0.0,1.0,58,0.00,,,0.00,0.0,meteohub,2013-02-08 03:42:00,
2013-02-07 20:47:00,49.5,35.8,30.01,West,265,1.0,1.0,59,0.00,,,0.00,0.0,meteohub,2013-02-08 03:47:00,
2013-02-07 20:52:00,49.3,35.1,30.01,West,265,0.0,2.0,58,0.00,,,0.00,0.0,meteohub,2013-02-08 03:52:00,
2013-02-07 20:57:00,48.9,34.3,30.01,West,265,1.0,2.0,57,0.00,,,0.00,0.0,meteohub,2013-02-08 03:57:00,
2013-02-07 21:02:00,48.7,35.1,30.01,West,265,0.0,2.0,59,0.00,,,0.00,0.0,meteohub,2013-02-08 04:02:00,
2013-02-07 21:07:00,48.7,35.4,30.01,West,265,1.0,1.0,60,0.00,,,0.00,0.0,meteohub,2013-02-08 04:07:00,
2013-02-07 21:12:00,48.6,34.9,30.01,West,265,0.0,1.0,59,0.00,,,0.00,0.0,meteohub,2013-02-08 04:12:00,
2013-02-07 21:17:00,48.4,35.1,30.01,West,265,1.0,2.0,60,0.00,,,0.00,0.0,meteohub,2013-02-08 04:17:00,
2013-02-07 21:22:00,48.0,35.2,30.01,West,265,0.0,2.0,61,0.00,,,0.00,0.0,meteohub,2013-02-08 04:22:00,
2013-02-07 21:27:00,47.8,35.1,30.01,West,265,0.0,1.0,61,0.00,,,0.00,0.0,meteohub,2013-02-08 04:27:00,
2013-02-07 21:32:00,47.5,33.8,30.01,West,265,1.0,1.0,59,0.00,,,0.00,0.0,meteohub,2013-02-08 04:32:00,
2013-02-07 21:37:00,47.3,33.6,30.01,West,265,0.0,1.0,59,0.00,,,0.00,0.0,meteohub,2013-02-08 04:37:00,
2013-02-07 21:42:00,46.9,33.4,30.01,West,265,0.0,2.0,59,0.00,,,0.00,0.0,meteohub,2013-02-08 04:42:00,
2013-02-07 21:47:00,46.8,33.3,30.01,West,265,1.0,2.0,59,0.00,,,0.00,0.0,meteohub,2013-02-08 04:47:00,
2013-02-07 21:52:00,46.6,33.1,30.01,West,265,0.0,2.0,59,0.00,,,0.00,0.0,meteohub,2013-02-08 04:52:00,
2013-02-07 21:57:00,46.2,34.3,30.01,West,265,0.0,1.0,63,0.00,,,0.00,0.0,meteohub,2013-02-08 04:57:00,
2013-02-07 22:00:00,46.2,34.3,30.01,West,265,1.0,1.0,63,0.00,,,0.00,0.0,meteohub,2013-02-08 05:00:00,
2013-02-07 22:05:00,45.9,34.3,30.00,West,265,1.0,2.0,64,0.00,,,0.00,0.0,meteohub,2013-02-08 05:05:00,
2013-02-07 22:10:00,45.7,33.1,30.00,West,265,0.0,2.0,61,0.00,,,0.00,0.0,meteohub,2013-02-08 05:10:00,
2013-02-07 22:15:00,45.9,34.3,30.00,West,265,0.0,2.0,64,0.00,,,0.00,0.0,meteohub,2013-02-08 05:15:00,
2013-02-07 22:20:00,45.7,33.4,30.00,West,265,0.0,2.0,62,0.00,,,0.00,0.0,meteohub,2013-02-08 05:20:00,
2013-02-07 22:25:00,45.9,34.0,30.00,West,265,1.0,1.0,63,0.00,,,0.00,0.0,meteohub,2013-02-08 05:25:00,
2013-02-07 22:30:00,46.0,33.3,30.00,West,265,2.0,2.0,61,0.00,,,0.00,0.0,meteohub,2013-02-08 05:30:00,
2013-02-07 22:35:00,46.0,33.3,30.00,West,265,1.0,2.0,61,0.00,,,0.00,0.0,meteohub,2013-02-08 05:35:00,
2013-02-07 22:40:00,46.2,33.4,30.00,West,265,0.0,2.0,61,0.00,,,0.00,0.0,meteohub,2013-02-08 05:40:00,
2013-02-07 22:45:00,46.2,34.0,30.00,West,265,0.0,2.0,62,0.00,,,0.00,0.0,meteohub,2013-02-08 05:45:00,
2013-02-07 22:51:00,46.0,33.8,30.00,West,265,2.0,2.0,62,0.00,,,0.00,0.0,meteohub,2013-02-08 05:51:00,
2013-02-07 22:56:00,46.0,33.3,30.00,West,265,1.0,2.0,61,0.00,,,0.00,0.0,meteohub,2013-02-08 05:56:00,
2013-02-07 23:00:00,46.8,33.3,30.00,West,265,0.0,2.0,59,0.00,,,0.00,0.0,meteohub,2013-02-08 06:00:00,
2013-02-07 23:06:00,47.3,32.9,30.00,West,265,1.0,2.0,57,0.00,,,0.00,0.0,meteohub,2013-02-08 06:06:00,
2013-02-07 23:11:00,47.5,33.1,29.99,West,265,1.0,2.0,57,0.00,,,0.00,0.0,meteohub,2013-02-08 06:11:00,
2013-02-07 23:16:00,46.9,33.8,29.99,West,268,0.0,2.0,60,0.00,,,0.00,0.0,meteohub,2013-02-08 06:16:00,
2013-02-07 23:21:00,46.2,33.4,29.99,West,268,1.0,2.0,61,0.00,,,0.00,0.0,meteohub,2013-02-08 06:21:00,
2013-02-07 23:26:00,45.9,34.0,29.99,West,268,0.0,2.0,63,0.00,,,0.00,0.0,meteohub,2013-02-08 06:26:00,
2013-02-07 23:31:00,45.3,33.4,29.99,West,268,1.0,2.0,63,0.00,,,0.00,0.0,meteohub,2013-02-08 06:31:00,
2013-02-07 23:36:00,45.1,34.2,29.99,West,268,0.0,2.0,65,0.00,,,0.00,0.0,meteohub,2013-02-08 06:36:00,
2013-02-07 23:41:00,45.0,34.3,29.99,West,268,0.0,2.0,66,0.00,,,0.00,0.0,meteohub,2013-02-08 06:41:00,
2013-02-07 23:46:00,44.8,34.2,29.99,West,268,0.0,2.0,66,0.00,,,0.00,0.0,meteohub,2013-02-08 06:46:00,
2013-02-07 23:51:00,44.4,34.2,29.99,West,268,0.0,1.0,67,0.00,,,0.00,0.0,meteohub,2013-02-08 06:51:00,
2013-02-07 23:56:00,44.2,33.3,29.99,West,268,0.0,1.0,65,0.00,,,0.00,0.0,meteohub,2013-02-08 06:56:00,